WB8HRV Weather Reports


time (UTC)temp
C
wind
direction
speed
KPH
gust
KPH
rain 1hr
cm
rain 24hr
cm
rain mn
cm
humidity
%
barometer
mb
20260902232744 33 242 3.2 11.3 0.00 0.00 0.00 57 1015.2
20260902231745 33 213 3.2 14.5 0.00 0.00 0.00 56 1015.3
20260902231224 33 250 3.2 11.3 0.00 0.00 0.00 56 1015.3
20260902225746 33 222 3.2 14.5 0.00 0.00 0.00 55 1015.3
20260902224745 34 228 3.2 9.7 0.00 0.00 0.00 54 1015.4
20260902223744 34 233 3.2 14.5 0.00 0.00 0.00 54 1015.3
20260902222746 34 211 6.4 19.3 0.00 0.00 0.00 54 1015.4
20260902222218 34 215 4.8 19.3 0.00 0.00 0.00 55 1015.4
20260902220742 34 229 3.2 16.1 0.00 0.00 0.00 53 1015.5
20260902220226 34 171 3.2 16.1 0.00 0.00 0.00 53 1015.4
20260902214742 34 178 4.8 16.1 0.00 0.00 0.00 53 1015.5
20260902213742 34 248 4.8 19.3 0.00 0.00 0.00 54 1015.5
20260902212745 34 259 4.8 19.3 0.00 0.00 0.00 53 1015.6
20260902211743 35 244 4.8 14.5 0.00 0.00 0.00 53 1015.5
20260902210736 34 259 3.2 12.9 0.00 0.00 0.00 52 1015.7
20260902205736 35 317 3.2 16.1 0.00 0.00 0.00 52 1015.7
20260902205217 34 238 3.2 16.1 0.00 0.00 0.00 53 1015.8
20260902203736 34 240 4.8 19.3 0.00 0.00 0.00 52 1015.9
20260902202737 34 253 3.2 19.3 0.00 0.00 0.00 52 1016.0
20260902201738 35 225 3.2 14.5 0.00 0.00 0.00 52 1016.0
20260902200737 34 248 3.2 14.5 0.00 0.00 0.00 53 1016.0
20260902195737 34 237 4.8 16.1 0.00 0.00 0.00 54 1016.2
20260902194737 34 262 3.2 16.1 0.00 0.00 0.00 53 1016.2
20260902193738 34 236 1.6 14.5 0.00 0.00 0.00 52 1016.3
20260902192734 35 225 3.2 14.5 0.00 0.00 0.00 50 1016.5
20260902191734 34 226 4.8 19.3 0.00 0.00 0.00 53 1016.7
20260902190733 34 236 4.8 17.7 0.00 0.00 0.00 52 1016.8
20260902185735 34 169 3.2 12.9 0.00 0.00 0.00 51 1016.9
20260902184727 33 229 3.2 16.1 0.00 0.00 0.00 53 1016.9
20260902184217 34 264 3.2 19.3 0.00 0.00 0.00 52 1017.0
20260902182727 33 236 3.2 12.9 0.00 0.00 0.00 54 1017.0
20260902182204 33 224 3.2 17.7 0.00 0.00 0.00 56 1017.2
20260902180727 33 236 4.8 20.9 0.00 0.00 0.00 56 1017.2
20260902175723 34 254 3.2 19.3 0.00 0.00 0.00 57 1017.3
20260902174721 33 254 4.8 19.3 0.00 0.00 0.00 56 1017.4
20260902173722 33 221 3.2 14.5 0.00 0.00 0.00 56 1017.4
20260902172723 33 237 4.8 19.3 0.00 0.00 0.00 55 1017.6
20260902171722 33 214 4.8 12.9 0.00 0.00 0.00 54 1017.7
20260902170722 33 253 4.8 19.3 0.00 0.00 0.00 56 1017.7
20260902170208 33 277 3.2 16.1 0.00 0.00 0.00 55 1017.7
20260902164721 33 228 3.2 17.7 0.00 0.00 0.00 55 1017.8
20260902163721 33 248 3.2 16.1 0.00 0.00 0.00 52 1017.9
20260902162723 33 243 3.2 9.7 0.00 0.00 0.00 55 1017.9
20260902161721 32 236 4.8 14.5 0.00 0.00 0.00 56 1017.9
20260902160723 32 299 4.8 17.7 0.00 0.00 0.00 57 1017.9
20260902155722 32 212 3.2 14.5 0.00 0.00 0.00 57 1018.0
20260902154718 32 324 3.2 12.9 0.00 0.00 0.00 58 1018.1
20260902154205 32 237 3.2 12.9 0.00 0.00 0.00 57 1018.3
20260902152715 31 284 3.2 11.3 0.00 0.00 0.00 60 1018.2
20260902151715 31 249 3.2 12.9 0.00 0.00 0.00 61 1018.3
20260902150717 31 194 3.2 8.0 0.00 0.00 0.00 63 1018.4
20260902145715 31 191 4.8 12.9 0.00 0.00 0.00 63 1018.4
20260902144715 30 233 4.8 16.1 0.00 0.00 0.00 64 1018.4
20260902143715 30 254 3.2 12.9 0.00 0.00 0.00 65 1018.4
20260902143154 30 214 3.2 12.9 0.00 0.00 0.00 66 1018.3
20260902141711 30 259 1.6 11.3 0.00 0.00 0.00 68 1018.3
20260902140711 29 274 3.2 8.0 0.00 0.00 0.00 69 1018.3
20260902135709 28 238 3.2 11.3 0.00 0.00 0.00 70 1018.2
20260902134709 28 236 3.2 9.7 0.00 0.00 0.00 70 1018.2
20260902134152 28 227 3.2 11.3 0.00 0.00 0.00 71 1018.2
20260902132711 28 225 1.6 4.8 0.00 0.00 0.00 73 1018.1
20260902131711 27 184 0.0 3.2 0.00 0.00 0.00 75 1018.2
20260902130709 27 233 1.6 6.4 0.00 0.00 0.00 76 1018.1
20260902130148 26 226 0.0 6.4 0.00 0.00 0.00 77 1018.2
20260902124709 26 226 0.0 4.8 0.00 0.00 0.00 77 1018.0
20260902123707 26 229 0.0 1.6 0.00 0.00 0.00 80 1018.0
20260902122707 25 229 0.0 0.0 0.00 0.00 0.00 81 1017.9
20260902121707 25 229 0.0 0.0 0.00 0.00 0.00 82 1017.8
20260902120708 24 229 0.0 0.0 0.00 0.00 0.00 84 1017.7
20260902115712 24 229 0.0 0.0 0.00 0.00 0.00 86 1017.7
20260902115146 23 229 0.0 0.0 0.00 0.00 0.00 87 1017.7
20260902113706 23 229 0.0 0.0 0.00 0.00 0.00 87 1017.5
20260902112704 23 229 0.0 0.0 0.00 0.00 0.00 87 1017.4
20260902111705 23 229 0.0 0.0 0.00 0.00 0.00 87 1017.2
20260902110706 23 229 0.0 0.0 0.00 0.00 0.00 87 1017.3
20260902105706 23 229 0.0 0.0 0.00 0.00 0.00 87 1017.2
20260902104703 23 229 0.0 0.0 0.00 0.00 0.00 87 1017.4
20260902103702 23 229 0.0 0.0 0.00 0.00 0.00 87 1017.3
20260902102704 23 229 0.0 0.0 0.00 0.00 0.00 87 1017.3
20260902101702 23 229 0.0 0.0 0.00 0.00 0.00 86 1017.2
20260902100704 23 229 0.0 0.0 0.00 0.00 0.00 86 1017.2
20260902095703 23 229 0.0 0.0 0.00 0.00 0.00 86 1017.2
20260902094704 23 229 0.0 0.0 0.00 0.00 0.00 86 1017.2
20260902093704 23 229 0.0 0.0 0.00 0.00 0.00 86 1017.2
20260902092704 23 229 0.0 0.0 0.00 0.00 0.00 86 1017.4
20260902091702 23 229 0.0 0.0 0.00 0.00 0.00 85 1017.2
20260902091625 23 229 0.0 0.0 0.00 0.00 0.00 85 1017.2
20260902085700 23 229 0.0 0.0 0.00 0.00 0.00 85 1017.0
20260902084659 23 229 0.0 0.0 0.00 0.00 0.00 85 1016.9
20260902083659 23 229 0.0 0.0 0.00 0.00 0.00 85 1016.8
20260902082700 24 229 0.0 0.0 0.00 0.00 0.00 85 1016.7
20260902081659 24 229 0.0 0.0 0.00 0.00 0.00 85 1016.6
20260902080659 24 229 0.0 0.0 0.00 0.00 0.00 85 1016.5
20260902075657 24 229 0.0 0.0 0.00 0.00 0.00 84 1016.6
20260902074657 24 229 0.0 0.0 0.00 0.00 0.00 84 1016.6
20260902073658 24 229 0.0 0.0 0.00 0.00 0.00 84 1016.6
20260902072657 24 229 0.0 0.0 0.00 0.00 0.00 84 1016.6
20260902071651 24 229 0.0 0.0 0.00 0.00 0.00 84 1016.5
20260902070651 24 229 0.0 0.0 0.00 0.00 0.00 83 1016.5
20260902065652 24 229 0.0 0.0 0.00 0.00 0.00 84 1016.5
20260902064651 24 229 0.0 0.0 0.00 0.00 0.00 83 1016.5
20260902064137 24 229 0.0 0.0 0.00 0.00 0.00 83 1016.5
20260902062650 25 229 0.0 0.0 0.00 0.00 0.00 83 1016.5
20260902062130 25 229 0.0 0.0 0.00 0.00 0.00 82 1016.6
20260902060649 25 229 0.0 0.0 0.00 0.00 0.00 82 1016.5
20260902055650 25 229 0.0 0.0 0.00 0.00 0.00 81 1016.5
20260902054648 25 229 0.0 0.0 0.00 0.00 0.00 81 1016.6
20260902053648 25 229 0.0 0.0 0.00 0.00 0.00 80 1016.5
20260902052649 25 229 0.0 0.0 0.00 0.00 0.00 80 1016.6
20260902051648 25 229 0.0 0.0 0.00 0.00 0.00 80 1016.6
20260902050649 25 229 0.0 0.0 0.00 0.00 0.00 79 1016.6
20260902045641 25 229 0.0 0.0 0.00 0.00 0.00 79 1016.6
20260902044643 26 229 0.0 0.0 0.00 0.00 0.00 79 1016.6
20260902043642 26 229 0.0 0.0 0.00 0.00 0.00 79 1016.5
20260902042644 26 229 0.0 0.0 0.00 0.00 0.00 79 1016.6
20260902042127 26 229 0.0 0.0 0.00 0.00 0.00 78 1016.6
20260902040642 26 229 0.0 0.0 0.00 0.00 0.00 78 1016.6
20260902035642 26 229 0.0 0.0 0.00 0.00 0.00 77 1016.7
20260902034641 26 229 0.0 0.0 0.00 0.00 0.00 76 1016.8
20260902033642 27 229 0.0 0.0 0.00 0.00 0.00 76 1016.9
20260902032640 27 229 0.0 0.0 0.00 0.00 0.00 75 1016.8
20260902031640 27 229 0.0 0.0 0.00 0.00 0.00 75 1016.7
20260902030638 27 229 0.0 0.0 0.00 0.00 0.00 74 1016.8
20260902025636 28 229 0.0 0.0 0.00 0.00 0.00 73 1016.7
20260902024634 28 229 0.0 0.0 0.00 0.00 0.00 71 1016.6
20260902024120 28 229 0.0 3.2 0.00 0.00 0.00 72 1016.6
20260902022632 28 236 0.0 0.0 0.00 0.00 0.00 73 1016.7
20260902021629 27 236 0.0 0.0 0.00 0.00 0.00 73 1016.6
20260902021108 28 236 0.0 0.0 0.00 0.00 0.00 73 1016.7
20260902020111 28 236 0.0 0.0 0.00 0.00 0.00 72 1016.8
20260902014627 28 236 0.0 0.0 0.00 0.00 0.00 71 1016.8
20260902013626 28 236 0.0 1.6 0.00 0.00 0.00 71 1016.6
20260902012626 28 236 0.0 0.0 0.00 0.00 0.00 71 1016.6
20260902011627 28 236 0.0 0.0 0.00 0.00 0.00 70 1016.4
20260902010626 29 236 0.0 1.6 0.00 0.00 0.00 69 1016.3
20260902005628 29 236 0.0 0.0 0.00 0.00 0.00 68 1016.3
20260902004625 30 236 0.0 0.0 0.00 0.00 0.00 66 1016.2
20260902004106 30 236 0.0 0.0 0.00 0.00 0.00 64 1016.2
20260902002624 31 236 0.0 0.0 0.00 0.00 0.00 62 1016.1
20260902001623 31 236 0.0 3.2 0.00 0.00 0.00 60 1016.1
20260902000624 32 236 0.0 0.0 0.00 0.00 0.00 58 1016.2
20260901235622 32 236 0.0 4.8 0.00 0.00 0.00 56 1016.4
20260901234622 33 238 1.6 6.4 0.00 0.00 0.00 55 1016.4